Simultaneous Nadir Overpasses (SNOs) Predictions

Prediction of SNOs between AQUA and NPP Satellite Orbit:

Table of predicted SNOs for the next 14.0 days since TLE Epoch: 1/23/2022
Index Date (AQUA) Time (AQUA) Lat,Lon (AQUA) SZA (AQUA ) Date (NPP) Time (NPP) Lat,Lon (NPP) SZA (NPP ) Distance(km) Time Diff (sec)
1 01/25/2022 06:22:10 76.50, -34.60 115.71 01/25/2022 06:21:43 76.50, -34.63 115.74 1.07 27
2 01/25/2022 07:11:20 -77.32, 136.06 65.27 01/25/2022 07:12:10 -77.32, 136.02 65.30 1.12 50
3 01/27/2022 21:55:10 -56.68,-112.03 45.72 01/27/2022 21:53:58 -56.91,-113.60 45.15 98.91 72
4 01/27/2022 22:38:29 76.85, 82.53 114.67 01/27/2022 22:38:25 76.85, 82.52 114.67 0.08 4
5 01/27/2022 23:27:39 -77.66,-106.65 66.32 01/27/2022 23:28:52 -77.66,-106.64 66.38 0.27 73
6 01/30/2022 14:05:42 -76.32, 28.94 65.39 01/30/2022 14:04:44 -76.32, 28.99 65.36 1.45 58
7 01/30/2022 14:54:47 77.28,-159.97 113.48 01/30/2022 14:55:06 77.28,-159.88 113.44 2.13 19
8 02/02/2022 06:22:06 -76.46, 145.30 66.27 02/02/2022 06:21:32 -76.45, 145.26 66.24 1.14 34
9 02/02/2022 07:11:12 77.37, -43.72 112.65 02/02/2022 07:11:55 77.36, -43.74 112.62 0.46 43
10 02/04/2022 22:38:27 -76.72, -97.88 67.35 02/04/2022 22:38:17 -76.72, -97.97 67.32 2.54 10



Historial Predications of SNOs between AQUA and NPP
